KRNTKBLI

Guest
Details From KRNT - Renton Muni
To KBLI - BELLINGHAM INTL
Flight Number -
Tags generated
Created
Modified
Stats Distance 79 nm / 147 km
Max Altitude 1,000 ft / 305 m
Waypoints 3
Social Downloads 0
Likes 0
Share VATSIM

Download

Looking for another format? Having issues loading an existing format? Contact us
Advertisement - Login to hide

Notes

Basic altitude profile: - Ascent Rate: 2500ft/min - Ascent Speed: 250kts - Cruise Altitude: 35000ft - Cruise Speed: 420kts - Descent Rate: 1500ft/min - Descent Speed: 250kts Options: - Use NATs: yes - Use PACOTS: yes - Use low airways: yes - Use high airways: yes

Route

KRNT EGRET KBLI

ID Type Via Altitude (ft/m) Position (lat/lon) Dist (leg/tot) Name
O KRNT APT - 0 / 0 47.49313 / -122.21574 - / 0 nm Renton Muni
EGRET FIX - 1,000 / 305 48.71163 / -122.50945 74 / 74 nm
O KBLI APT - 0 / 0 48.79261 / -122.53753 4 / 79 nm BELLINGHAM INTL

Altitude Profile

Advertisement - Login to hide

KRNT

Details ICAO KRNT (RNT)
Name Renton Muni
Region United States
Timezone America/Los_Angeles (UTC-7.0)
Stats Elevation 32 ft / 10 m (AMSL)
Location 47.493100° -122.216000°
Runways 1
Magnetic Variation 15.559° E

METAR

KRNT 160853Z 00000KT 10SM CLR 08/06 A3032 RMK AO2 SLP271 T00830056 51003

Decode

TAF

Not found

Departure Runways

ID Width Length Bearing (true/mag) Surface Threshold Overrun Markings Lighting
16 200 ft / 61 m 5,391 ft / 1,643 m 174.17° / 158.61° ASPHALT 312 ft / 95 m 0 ft / 0 m APP CENTERLINE EDGE THRESHOLD MALSF
34 200 ft / 61 m 5,391 ft / 1,643 m 354.17° / 338.61° ASPHALT 351 ft / 107 m 161 ft / 49 m APP CENTERLINE EDGE THRESHOLD MALSF

KBLI

Details ICAO KBLI (BLI)
Name BELLINGHAM INTL
Region United States
Timezone America/Los_Angeles (UTC-7.0)
Stats Elevation 170 ft / 52 m (AMSL)
Location 48.792600° -122.538000°
Runways 1
Magnetic Variation 15.926° E

METAR

KBLI 160903Z AUTO 00000KT 1/2SM R16/1600V2600FT FG VV002 04/03 A3034 RMK AO2 T00440028

Decode

TAF

TAF KBLI 160526Z 1606/1706 00000KT P6SM SKC FM161700 30006KT P6SM SKC

Decode

Destination Runways

ID Width Length Bearing (true/mag) Surface Threshold Overrun Markings Lighting
16 151 ft / 46 m 6,755 ft / 2,059 m 179.88° / 163.95° ASPHALT 0 ft / 0 m 0 ft / 0 m PREC-APP EDGE THRESHOLD MALSR
34 151 ft / 46 m 6,755 ft / 2,059 m 359.88° / 343.95° ASPHALT 0 ft / 0 m 0 ft / 0 m APP EDGE THRESHOLD REIL-OMNI

Approach Navaids

Runway Type Ident Frequency Range Bearing (true/mag) Slope Elevation
16 MM MM - - 179.88° / 163.95 ° - 170 ft / 52 m (AMSL)
16 OM OM - - 179.88° / 163.95 ° - 44 ft / 13 m (AMSL)
16 LOC-ILS IBLI 108.50 MHz 18 nm / 33 km 179.83° / 163.90 ° - 152 ft / 46 m (AMSL)
16 GS IBLI 108.50 MHz 10 nm / 19 km 180.75° / 164.83 ° 3.00° 154 ft / 47 m (AMSL)

Popular Alternatives